Wetbulb
58.66 58.24 58.22 58.38 58.31 58.50 58.31 58.33 58.48 58.73 58.99 59.22 59.41 59.64 60.13 60.69 60.30 61.20 56.94 65.45 67.18 72.74 70.00 62.97 64.68 66.14 67.11 66.02 68.39 69.51 61.29 58.76 59.97 60.06 63.17 66.48 64.71 69.71 68.55 64.90 68.40 70.53 70.51 71.96 73.15
58.83 58.11 57.78 57.75 57.80 58.01 58.20 58.10 58.24 58.33 58.80 58.90 59.02 59.49 60.11 60.56 60.63 57.08 65.85 72.99 70.33 72.90 61.61 62.30 63.66 66.23 64.36 65.70 65.87 64.19 59.60 60.67 63.99 64.15 62.04 65.01 65.97 65.76 65.40 63.02 62.96 69.85 72.35 72.90 72.85
58.51 58.16 57.54 57.73 57.46 57.61 57.73 57.90 57.99 57.97 58.30 58.49 58.85 59.47 59.97 61.05 59.07 56.29 74.60 73.46 71.68 67.61 61.55 63.98 64.51 64.35 62.36 64.68 64.45 63.21 59.11 63.14 63.42 65.16 65.14 63.77 65.40 68.14 62.55 59.22 63.00 67.32 70.51 71.82 71.95
58.02 57.72 57.39 57.22 57.47 57.10 57.29 57.50 57.65 57.77 57.90 58.12 58.66 59.70 60.43 60.72 52.87 61.70 74.31 74.13 73.08 63.27 61.18 62.25 63.20 62.29 61.16 60.43 63.86 61.69 63.54 63.59 64.07 64.26 64.17 64.15 65.41 66.01 67.01 64.02 67.29 68.76 69.69 72.18 71.51
57.87 57.50 56.88 56.65 56.99 57.33 57.09 57.51 57.27 57.35 57.49 57.91 58.72 60.01 61.39 57.26 55.61 65.33 75.24 73.68 63.60 60.76 60.68 61.88 62.29 62.54 59.80 62.04 62.10 61.77 61.70 62.00 63.48 63.25 63.93 63.93 64.51 65.26 67.12 70.22 69.94 70.92 72.85 72.06 71.99
57.54 56.88 56.68 56.25 56.39 56.79 56.68 56.91 56.90 56.90 57.34 57.83 59.24 60.14 59.37 53.82 61.11 62.88 64.66 66.45 62.70 61.88 61.61 63.29 63.41 63.90 61.86 61.02 61.04 63.11 61.67 61.35 62.62 63.27 64.04 62.82 64.22 64.96 68.78 70.15 69.45 72.03 72.04 72.02 72.10
57.56 56.76 56.30 56.11 56.24 56.30 55.84 56.04 56.18 56.58 57.06 58.17 59.71 61.55 58.69 56.54 60.47 62.36 63.87 65.20 63.09 63.45 62.04 65.23 65.73 62.80 63.13 61.04 63.45 62.47 58.84 59.35 61.70 63.03 62.87 64.06 62.94 64.72 69.52 70.47 69.67 69.71 71.67 71.30 72.26
57.16 56.27 55.88 55.84 55.99 55.74 55.14 55.51 55.53 56.31 57.05 58.65 60.40 61.37 56.26 62.41 63.26 60.85 62.81 63.28 64.13 65.55 64.74 66.45 66.70 63.62 62.33 64.32 62.48 59.72 59.12 55.65 61.43 62.15 64.25 62.89 56.55 60.75 66.42 68.86 68.55 70.61 70.79 70.02 69.07
56.57 55.90 55.50 55.69 55.46 55.50 54.80 54.94 55.63 57.14 58.76 60.00 60.29 60.09 56.32 62.50 57.49 59.99 62.76 60.68 63.48 65.03 65.34 65.95 64.92 62.22 62.16 59.08 57.05 57.87 53.88 56.62 58.74 62.68 62.09 62.13 56.86 61.29 65.26 67.78 68.28 69.48 69.63 70.35 69.57
56.82 55.37 55.30 55.48 55.37 54.85 54.34 54.83 56.83 57.95 60.18 62.59 61.32 58.26 59.34 55.46 56.73 58.83 62.21 61.55 61.84 62.53 61.91 62.26 61.79 59.44 59.41 57.41 51.91 54.41 55.02 57.11 57.15 59.98 61.66 60.90 61.70 65.57 67.12 67.30 67.12 67.90 68.39 69.16 69.72
56.82 55.74 55.14 55.65 55.20 54.42 54.67 57.89 58.13 57.39 59.94 57.63 56.41 56.60 55.86 58.77 58.95 58.59 61.08 59.90 61.77 60.68 57.00 60.44 57.16 55.10 56.75 58.47 58.99 58.43 56.51 55.53 58.77 61.10 58.89 59.06 60.22 63.38 66.27 66.41 65.88 66.86 68.03 68.96 69.04
56.32 56.23 56.06 55.58 55.01 54.34 55.06 59.24 61.01 62.24 57.46 60.24 59.90 57.20 58.50 58.42 54.98 57.59 61.04 56.70 58.28 55.59 58.27 57.84 55.07 58.48 59.15 59.45 57.71 57.85 56.42 55.10 59.00 60.67 59.11 60.74 60.62 63.68 65.03 65.12 65.80 66.75 67.51 67.60 68.14
56.44 55.90 55.58 55.21 54.87 53.57 57.83 59.31 64.43 64.12 57.07 58.69 60.30 57.88 56.21 57.77 55.01 55.87 58.60 57.15 56.72 55.92 56.66 55.63 57.47 59.59 58.18 58.19 56.43 55.81 55.55 55.60 55.87 59.50 60.08 58.30 60.64 62.02 65.08 65.70 65.93 67.35 67.86 67.61 67.56
56.25 56.04 55.17 54.42 52.05 60.56 57.49 61.07 62.92 63.79 53.43 55.03 57.86 58.85 56.24 56.23 53.60 59.50 60.07 57.01 55.88 55.03 57.11 56.75 60.17 57.16 57.61 56.25 57.01 53.06 57.52 57.86 56.65 55.76 52.05 59.14 51.94 58.17 60.26 59.28 64.66 65.94 66.65 67.11 67.57
55.98 55.74 54.70 53.62 55.98 60.14 61.56 62.62 63.46 62.37 45.01 55.94 57.86 61.92 57.14 53.14 55.40 56.89 60.91 58.10 53.42 54.77 55.99 55.54 56.83 56.72 55.39 55.91 57.62 55.04 58.98 57.91 57.00 55.16 54.49 56.04 53.82 55.28 57.21 58.08 62.08 64.96 66.51 66.55 68.63
55.37 54.70 54.50 55.67 56.15 60.47 63.95 63.54 62.34 51.35 44.81 54.38 56.20 53.59 52.75 53.12 53.56 57.48 57.74 59.52 58.13 55.35 56.03 56.04 60.06 58.39 58.36 57.51 57.77 58.84 57.17 56.85 56.88 55.37 50.01 53.39 54.15 51.65 55.95 57.44 61.64 65.05 66.24 66.92 66.66
53.83 53.15 53.38 59.49 59.80 63.23 63.43 60.73 50.91 46.77 54.42 54.00 53.66 54.62 52.55 50.49 52.36 54.94 54.54 53.53 52.38 49.62 50.69 53.97 55.61 58.18 59.00 56.14 57.31 56.99 54.29 49.22 48.66 49.24 47.01 56.49 54.57 56.10 59.75 61.98 63.34 64.47 65.45 66.20 67.64
51.58 51.95 53.87 56.92 63.82 64.01 60.52 55.61 47.14 50.95 52.41 57.19 56.09 55.26 51.16 51.40 52.08 53.20 53.20 51.66 54.56 53.08 51.23 49.62 49.34 55.68 57.89 55.47 54.72 55.22 53.96 49.86 45.28 47.09 48.52 55.80 50.82 54.02 61.08 64.11 65.36 65.49 66.15 66.56 67.01
50.96 57.01 60.23 61.16 61.01 63.15 57.57 49.78 50.47 53.77 55.18 54.74 54.87 52.28 50.95 51.94 51.01 51.89 52.26 51.83 53.51 54.06 50.22 50.05 51.16 56.58 57.26 57.29 56.38 54.95 52.92 56.97 51.32 51.86 48.92 52.44 51.65 56.87 59.84 62.90 64.01 63.81 65.27 65.46 66.74
58.27 61.73 61.59 63.83 62.74 60.73 55.07 49.07 53.39 57.51 58.48 57.93 51.23 53.09 50.05 50.51 49.69 50.97 51.78 54.20 53.00 54.88 55.91 53.32 50.15 54.79 55.84 57.63 57.03 56.09 58.65 52.18 52.40 45.51 44.51 48.87 47.79 49.19 52.64 59.79 62.93 62.79 63.93 65.59 67.27
58.58 60.27 62.31 63.69 62.47 57.52 51.71 52.94 55.55 58.70 59.08 56.89 53.98 51.90 52.16 51.06 51.42 51.55 51.46 53.57 55.22 55.12 55.96 53.94 52.26 52.59 55.11 53.90 52.86 54.25 53.83 54.81 54.80 52.70 47.85 47.11 48.95 54.55 55.58 58.31 62.48 63.63 64.96 66.03 67.45
61.60 56.85 62.30 63.13 54.69 55.47 52.90 55.24 53.89 57.17 59.00 58.27 58.60 56.10 52.71 52.95 52.12 51.53 51.83 53.66 55.98 55.93 53.08 54.55 52.54 50.30 52.84 56.74 57.38 57.01 55.19 54.69 50.91 51.40 53.22 52.56 51.85 60.36 60.99 61.22 63.70 64.12 65.74 66.75 68.45
59.88 59.08 62.56 61.83 52.06 52.81 55.35 55.10 56.86 56.23 57.28 57.44 56.57 58.16 57.95 54.33 52.08 53.08 53.24 56.49 56.86 55.18 54.05 54.45 51.00 48.50 50.33 54.54 56.96 54.58 55.43 56.14 55.88 55.45 54.20 50.02 50.72 61.54 62.22 62.73 64.28 64.29 65.75 67.94 68.99
60.79 54.96 57.52 58.76 59.02 57.21 56.04 54.21 54.71 57.76 57.52 58.62 58.35 59.59 57.52 55.18 56.13 54.17 53.17 55.90 56.92 56.33 63.03 59.06 52.11 51.35 47.30 50.84 55.76 53.38 54.90 55.71 54.79 51.52 52.40 52.94 54.66 56.17 56.72 57.37 63.13 65.74 66.98 67.63 69.93
62.48 59.64 58.71 52.77 54.45 57.01 56.98 56.66 54.49 54.21 57.60 59.14 57.77 58.77 57.40 53.94 53.66 53.37 54.81 55.78 56.37 61.23 57.48 53.74 50.49 52.38 53.46 55.57 55.21 54.80 54.85 56.48 53.94 54.48 52.27 54.85 55.36 56.48 57.75 58.43 60.83 63.12 68.18 68.98 70.30
59.33 58.66 61.39 59.33 56.55 55.43 53.92 55.87 55.46 55.06 56.44 56.32 57.22 59.12 58.99 56.61 57.37 56.09 56.28 57.58 55.78 56.56 54.12 54.44 52.14 53.34 51.81 53.97 53.98 53.54 56.39 55.99 56.24 56.01 57.52 55.08 52.40 56.59 59.68 60.98 60.90 62.90 68.69 69.80 70.86
62.32 62.94 61.28 57.50 57.95 56.18 55.62 56.81 56.15 57.63 58.92 61.08 59.15 57.79 56.61 57.34 58.96 59.55 58.20 57.11 58.47 58.56 54.38 53.80 51.94 52.06 49.93 53.52 53.19 50.82 54.61 55.40 56.37 58.58 58.26 51.76 55.50 57.08 55.75 58.05 59.81 62.34 69.83 70.45 70.93
MSLP
1016.16 1015.88 1015.57 1015.26 1014.90 1014.67 1014.45 1014.27 1014.07 1013.82 1013.59 1013.36 1013.12 1012.76 1012.44 1012.01 1010.91 1009.61 1007.75 1006.25 1005.99 1005.91 1005.79 1004.89 1003.47 1002.30 1001.49 1000.83 1000.80 1001.21 1003.07 1002.85 1002.81 1003.29 1002.23 1001.53 1001.75 1002.77 1004.20 1006.61 1005.38 1003.65 1004.76 1005.69 1006.40
1016.17 1015.91 1015.61 1015.28 1014.95 1014.64 1014.38 1014.20 1014.01 1013.78 1013.58 1013.38 1013.12 1012.80 1012.47 1012.16 1010.45 1007.75 1005.80 1005.66 1005.76 1006.02 1005.50 1004.22 1002.40 1001.50 1000.69 1000.26 1000.41 1002.45 1003.65 1001.95 1001.93 1001.27 1002.11 1001.48 1002.03 1002.36 1005.44 1007.11 1007.54 1005.33 1004.74 1005.76 1006.36
1016.15 1015.91 1015.65 1015.26 1014.94 1014.62 1014.33 1014.10 1013.93 1013.74 1013.53 1013.38 1013.17 1012.88 1012.58 1012.15 1009.40 1004.81 1004.36 1005.31 1005.55 1005.76 1005.37 1004.40 1002.99 1001.85 1000.55 999.94 1000.01 1002.04 1002.77 1001.08 1000.88 1001.38 1001.65 1001.91 1001.72 1002.56 1004.90 1007.90 1007.77 1007.82 1005.72 1005.66 1006.20
1016.13 1015.87 1015.59 1015.30 1014.89 1014.57 1014.26 1013.99 1013.81 1013.67 1013.51 1013.35 1013.14 1012.89 1012.60 1011.62 1007.18 1004.57 1005.13 1005.27 1005.47 1005.35 1005.04 1004.13 1002.42 1001.11 1000.03 999.93 999.92 1000.56 1000.91 1000.89 1000.84 1000.82 1000.83 1001.15 1000.81 1002.95 1003.87 1005.39 1005.43 1006.18 1006.24 1005.62 1005.89
1016.12 1015.84 1015.53 1015.24 1014.91 1014.54 1014.20 1013.89 1013.68 1013.56 1013.41 1013.30 1013.08 1012.86 1011.90 1009.32 1005.68 1004.43 1004.96 1005.26 1005.30 1005.24 1004.52 1003.37 1001.76 1000.54 999.91 999.91 1000.10 1000.89 1000.40 1000.49 1000.46 1000.59 1000.45 1000.66 1001.18 1001.70 1002.58 1003.47 1004.47 1005.03 1005.13 1005.71 1005.59
1016.06 1015.80 1015.47 1015.14 1014.79 1014.43 1014.17 1013.81 1013.52 1013.41 1013.27 1013.19 1013.01 1012.92 1011.36 1007.12 1002.86 1003.22 1004.05 1004.60 1004.25 1004.30 1003.79 1002.91 1001.42 1000.67 1000.58 999.96 1000.23 1000.64 1000.25 1000.08 1000.04 1000.18 1000.12 1000.61 1001.35 1001.90 1002.79 1002.68 1002.96 1003.63 1004.68 1005.36 1005.43
1015.96 1015.68 1015.37 1015.02 1014.63 1014.27 1014.00 1013.71 1013.39 1013.23 1013.12 1013.04 1012.94 1012.32 1009.43 1005.34 1003.05 1002.97 1003.36 1003.50 1003.56 1003.36 1002.89 1002.19 1001.47 1001.13 1000.33 1000.07 1000.47 1000.41 1000.14 1000.04 999.86 999.98 1000.14 1000.82 1001.86 1003.17 1003.28 1002.99 1003.12 1003.59 1004.57 1005.44 1006.45
1015.86 1015.56 1015.23 1014.85 1014.47 1014.08 1013.84 1013.51 1013.24 1013.06 1012.95 1012.87 1012.79 1011.59 1007.43 1003.34 1003.58 1003.11 1002.85 1002.64 1002.77 1002.69 1002.36 1001.50 1001.50 1001.43 1000.64 1000.05 1000.30 1000.16 1000.00 999.58 999.84 1000.08 1000.32 1001.20 1004.77 1006.01 1004.78 1002.94 1003.11 1004.20 1005.43 1006.44 1008.17
1015.73 1015.44 1015.11 1014.70 1014.33 1013.90 1013.57 1013.25 1012.99 1012.82 1012.62 1012.54 1012.02 1010.11 1005.39 1003.43 1003.22 1002.75 1002.71 1002.06 1002.05 1002.25 1002.09 1001.76 1001.80 1001.49 1000.58 1000.09 999.82 999.59 999.37 999.51 1000.06 1000.14 1000.21 1000.83 1004.15 1004.53 1004.32 1002.79 1003.47 1004.78 1005.83 1006.64 1009.12
1015.54 1015.28 1014.91 1014.54 1014.17 1013.72 1013.33 1013.10 1012.79 1012.52 1012.03 1011.11 1009.97 1008.34 1004.19 1002.36 1002.36 1002.57 1002.44 1001.97 1001.87 1002.00 1002.10 1002.18 1001.99 1001.26 1000.20 999.40 999.49 999.28 999.40 999.67 1000.11 1000.92 1000.28 1000.85 1002.32 1003.05 1003.26 1003.17 1003.56 1004.31 1005.36 1007.03 1008.65
1015.33 1015.03 1014.67 1014.33 1013.99 1013.64 1013.10 1012.13 1011.71 1010.62 1009.02 1006.33 1004.99 1003.61 1001.49 1001.62 1001.76 1001.80 1001.81 1001.62 1001.59 1001.70 1001.59 1001.60 1001.23 1000.21 999.25 998.96 999.43 999.49 1000.01 999.11 999.40 999.65 1000.04 1000.50 1001.42 1002.41 1002.96 1003.61 1004.21 1004.77 1006.51 1007.66 1008.99
1015.14 1014.78 1014.42 1014.10 1013.84 1013.53 1013.12 1009.52 1005.94 1005.12 1004.92 1004.50 1003.71 1002.40 1001.36 1000.72 1001.02 1001.05 1001.34 1001.34 1001.19 1001.12 1001.24 1000.89 1000.34 999.35 998.77 999.85 999.23 999.09 998.92 998.66 998.79 999.36 999.98 1000.55 1001.23 1002.38 1003.05 1003.29 1003.82 1004.73 1006.31 1007.79 1009.11
1014.92 1014.55 1014.18 1013.87 1013.55 1013.00 1010.37 1007.44 1005.54 1004.96 1003.70 1001.45 1001.86 1001.47 1001.12 1001.27 1000.65 1000.50 1000.87 1000.99 1000.72 1000.81 1000.45 999.88 999.15 998.90 998.65 998.68 998.92 998.86 998.59 998.29 998.96 999.56 999.75 1000.31 1002.08 1002.94 1003.61 1003.63 1004.20 1004.94 1006.50 1007.54 1008.35
1014.60 1014.26 1013.98 1013.67 1013.49 1009.42 1008.41 1007.08 1006.46 1005.33 1003.05 999.78 1000.37 1000.42 1000.50 1000.79 1000.34 999.84 1000.28 1000.68 1000.36 1000.15 999.89 999.45 998.52 998.18 998.24 998.58 998.50 998.12 998.01 998.13 998.64 998.75 999.00 1000.00 1002.00 1003.99 1004.83 1005.13 1003.97 1004.46 1005.52 1006.17 1007.11
1014.25 1013.97 1013.76 1013.84 1011.85 1007.90 1005.47 1005.52 1005.16 1004.72 1001.42 997.35 998.71 998.75 999.38 999.92 998.75 999.06 999.70 1000.03 999.75 999.61 999.63 998.75 998.13 997.83 998.09 998.35 998.37 997.88 998.58 998.66 998.39 998.62 998.86 999.85 1003.39 1005.47 1004.77 1004.86 1003.91 1003.63 1003.96 1004.54 1005.65
1013.78 1013.54 1013.48 1012.25 1011.49 1007.80 1006.14 1005.28 1005.23 1003.74 999.39 997.62 998.40 998.63 998.93 999.34 998.75 998.61 999.38 999.92 999.59 999.18 999.06 998.37 997.89 997.95 997.64 998.08 998.08 998.03 998.07 998.63 998.66 998.67 999.11 1000.58 1002.56 1004.87 1004.81 1004.85 1003.66 1002.93 1003.07 1003.55 1004.61
1013.05 1012.91 1013.03 1010.46 1007.49 1006.07 1006.25 1005.31 1003.89 1000.90 997.54 996.92 997.69 998.14 998.17 998.45 998.38 998.10 998.78 999.31 999.05 999.07 998.43 998.20 997.54 997.48 997.67 997.83 997.90 997.99 998.42 998.42 998.60 999.09 1001.52 1000.80 1001.81 1003.55 1003.68 1004.03 1002.74 1002.35 1002.57 1003.41 1003.98
1012.23 1011.86 1011.20 1010.25 1007.45 1006.41 1005.65 1004.71 1001.60 998.50 996.87 995.77 996.34 997.27 997.47 997.69 997.72 997.77 998.40 998.57 998.77 998.51 997.65 997.63 997.33 997.13 997.41 997.90 997.41 997.72 998.33 998.36 999.57 1000.94 1003.04 1003.63 1005.39 1005.61 1004.77 1002.93 1002.33 1002.35 1002.56 1003.02 1003.59
1011.90 1010.63 1008.90 1007.55 1008.31 1006.62 1005.19 1002.94 999.67 997.13 995.72 995.01 995.48 996.38 996.94 997.04 997.40 997.19 997.57 997.86 997.89 998.03 997.44 996.69 996.69 996.63 997.00 997.43 997.82 997.32 997.68 998.31 1000.54 1001.57 1003.56 1005.55 1009.07 1008.20 1005.48 1003.74 1002.60 1002.60 1002.67 1002.84 1003.24
1010.57 1007.51 1005.67 1005.69 1007.06 1006.05 1004.47 1001.32 998.63 996.93 995.99 995.50 995.04 995.63 995.95 996.12 996.68 996.50 996.87 997.02 997.04 997.16 997.11 996.33 995.87 995.66 995.81 996.78 997.14 997.13 998.17 999.40 1000.73 1001.66 1003.09 1006.97 1009.28 1009.90 1007.26 1004.42 1002.69 1002.67 1002.63 1002.72 1002.99
1009.78 1005.94 1004.68 1005.27 1005.90 1004.91 1002.67 1000.47 998.73 997.23 996.94 995.86 994.94 994.91 995.16 995.12 995.71 995.43 995.87 995.91 996.07 996.12 996.74 996.59 995.98 995.11 995.08 995.72 996.30 996.65 997.13 997.70 998.56 1000.33 1001.84 1004.59 1007.32 1008.12 1006.77 1005.80 1002.64 1002.41 1002.34 1002.43 1002.67
1007.86 1004.74 1004.50 1004.74 1004.58 1003.30 1001.57 999.62 998.22 996.76 996.94 996.39 995.55 994.86 994.56 994.56 994.80 995.20 994.84 994.64 994.92 995.55 995.71 996.46 995.93 995.19 994.92 995.20 995.82 995.66 995.69 996.16 996.71 997.53 999.22 1001.52 1005.01 1004.88 1005.04 1004.35 1002.60 1001.96 1001.96 1002.21 1002.49
1007.29 1004.09 1004.14 1003.94 1002.53 1001.30 1000.58 998.95 997.57 997.42 996.55 996.36 995.66 995.04 994.23 994.26 994.43 994.56 994.60 994.25 994.59 995.14 995.24 996.12 996.21 995.46 994.63 994.81 995.20 995.35 995.54 995.43 995.67 996.01 998.40 1000.68 1003.54 1003.82 1004.86 1004.99 1003.56 1001.61 1001.51 1002.05 1002.65
1007.48 1003.44 1003.58 1003.52 1002.33 1001.13 999.41 998.41 997.49 997.69 996.89 996.23 995.79 995.60 995.10 994.86 994.77 994.83 994.85 994.50 994.92 995.45 995.64 995.95 995.65 995.35 995.57 996.44 996.74 995.01 995.08 995.19 995.48 995.87 997.78 999.77 1002.50 1004.11 1005.52 1006.50 1005.16 1001.71 1001.29 1001.97 1002.89
1006.84 1003.46 1001.10 1001.46 1001.24 1000.52 999.34 997.99 997.22 996.79 996.93 996.96 996.80 996.66 995.81 995.81 996.07 996.26 996.12 995.23 995.47 995.85 995.97 996.03 995.65 995.69 995.87 996.87 997.53 996.07 995.88 995.03 995.27 996.06 997.28 1000.67 1003.50 1005.92 1006.52 1007.72 1006.55 1005.05 1001.41 1001.87 1002.84
1006.15 1004.47 1002.33 1000.85 1000.02 999.80 998.80 997.80 996.96 996.41 996.50 996.88 997.02 997.71 997.83 999.38 999.63 999.40 999.38 998.33 995.88 995.97 995.86 995.97 995.85 995.79 995.85 995.61 995.93 996.60 995.99 995.01 994.93 995.59 997.45 1001.18 1004.27 1006.08 1006.04 1005.35 1005.66 1003.20 1002.35 1002.19 1003.35
1007.00 1005.56 1004.06 1001.48 999.57 999.46 998.75 998.60 997.57 996.61 996.08 997.62 998.42 999.69 1001.85 1003.14 1002.20 1000.32 1000.49 999.55 998.84 997.53 996.00 995.54 995.69 995.94 995.67 995.78 995.54 994.85 994.30 994.71 994.96 995.57 997.36 1002.14 1005.34 1006.48 1006.05 1004.83 1004.49 1004.95 1001.83 1002.58 1003.92
Wind_Speed
12 12 12 12 11 10 10 10 10 11 12 14 14 15 16 17 21 10 13 3 3 3 8 15 19 15 14 16 6 2 5 2 12 13 11 4 8 16 18 8 13 9 16 20 19
12 12 13 12 12 11 10 10 10 11 11 13 14 15 16 16 13 19 17 6 6 2 10 16 15 7 11 8 5 14 3 4 15 2 13 4 7 6 18 24 17 9 20 20 18
12 12 12 13 12 11 11 10 10 10 11 12 13 14 15 15 10 18 13 13 10 7 13 17 15 17 17 14 3 7 1 2 3 11 14 12 16 10 23 9 11 10 10 20 18
13 13 12 13 13 12 11 10 10 10 10 11 12 14 13 8 4 7 8 8 8 12 15 16 16 19 13 4 6 10 8 1 6 3 1 13 3 27 13 13 21 26 22 18 18
13 13 13 13 13 12 11 10 10 10 10 11 12 12 10 10 15 11 11 9 11 14 16 16 18 13 5 8 3 13 4 2 7 3 7 3 7 6 10 8 17 16 16 15 16
12 13 13 13 14 13 12 11 9 9 10 10 11 12 8 15 9 9 13 13 15 16 16 17 14 9 10 1 3 10 6 7 6 5 2 5 3 3 10 5 2 11 18 14 14
13 13 13 14 14 13 13 11 9 9 10 10 9 8 11 19 3 7 9 15 18 18 17 16 16 10 11 4 9 12 9 9 9 7 1 1 4 15 4 2 6 12 13 9 8
13 14 14 14 15 14 14 11 10 10 10 10 8 9 10 8 18 10 12 15 19 17 19 13 8 13 14 6 9 14 13 11 5 6 6 5 7 19 24 6 8 11 9 2 16
13 15 15 14 14 13 13 11 10 10 11 10 8 10 14 4 15 13 14 16 17 13 17 7 6 15 19 11 13 10 10 5 12 11 4 6 6 17 21 5 11 11 8 9 20
12 15 15 13 13 13 12 10 8 9 8 10 12 10 13 13 14 17 17 17 15 16 13 11 11 14 16 14 9 6 2 12 10 1 10 5 15 10 6 3 4 10 8 6 10
13 14 15 12 12 11 12 6 7 8 13 11 17 13 6 16 15 16 18 18 18 17 16 17 14 17 21 11 12 11 17 11 13 8 4 1 4 6 6 3 2 9 12 7 9
14 13 13 11 11 10 8 8 9 9 9 28 21 18 10 8 13 15 19 16 20 18 18 17 17 21 15 14 4 9 12 12 7 7 6 9 5 7 5 4 7 9 9 8 10
14 13 12 11 11 7 13 17 9 14 9 16 25 17 13 10 14 18 20 20 17 20 20 20 20 19 13 11 12 12 15 2 4 9 9 9 7 6 6 7 2 11 11 9 12
14 13 12 11 7 10 11 16 17 13 8 12 21 18 18 12 17 18 21 19 14 18 20 20 22 15 16 8 12 16 14 10 11 11 9 8 4 4 10 12 7 13 14 12 15
15 13 10 5 14 7 7 14 10 7 8 18 20 9 15 17 11 21 21 20 20 18 15 18 20 9 8 14 14 17 8 14 15 13 17 13 9 6 8 8 10 11 15 15 20
15 12 9 8 7 16 16 0 6 8 11 10 10 15 18 19 22 21 19 20 17 18 17 22 14 16 14 11 16 19 12 11 14 15 13 11 11 8 8 15 16 14 14 13 16
15 12 9 10 6 10 9 8 7 11 10 13 20 18 20 16 21 17 21 20 17 15 17 19 21 14 13 13 16 16 13 11 10 11 3 11 4 3 17 21 12 17 15 14 13
14 8 13 14 8 11 8 10 11 14 21 15 15 17 20 19 22 19 19 18 21 19 13 16 15 19 11 17 15 11 17 12 6 7 6 24 10 5 14 12 15 16 18 17 16
13 7 7 9 14 10 9 13 11 17 17 7 14 18 18 19 16 18 20 20 19 22 19 16 18 16 20 17 18 18 16 9 6 9 8 2 5 14 25 22 16 17 18 18 16
6 9 8 13 14 9 10 19 19 15 12 9 10 13 17 20 21 19 19 20 21 22 19 19 13 18 21 17 20 21 7 5 1 5 14 5 3 3 27 13 17 18 18 18 17
7 8 8 13 11 8 12 19 20 9 6 8 7 11 16 17 19 17 16 17 22 20 19 20 17 11 18 14 19 16 17 14 17 7 6 8 5 21 26 24 16 18 18 18 17
7 5 9 11 9 10 13 23 13 6 8 11 16 17 16 16 20 19 16 17 12 20 21 18 12 14 16 17 19 19 18 19 13 13 12 6 5 11 15 11 15 18 17 18 15
6 7 8 10 8 12 18 23 10 11 8 11 11 12 9 15 17 18 19 14 13 14 18 14 15 14 17 18 19 16 21 20 16 19 6 3 5 5 5 11 24 17 16 14 13
7 3 6 8 12 16 15 19 8 13 17 14 12 13 15 12 16 13 18 13 10 8 9 13 18 16 4 14 16 22 19 14 18 12 6 0 7 4 11 17 29 16 17 17 12
5 5 7 9 13 19 13 18 17 18 17 12 13 17 14 11 14 14 15 12 12 8 10 16 18 19 13 16 3 17 19 14 15 17 17 19 14 5 8 13 25 22 17 17 15
6 8 12 11 11 16 10 13 11 19 6 18 18 15 10 11 9 3 7 6 15 12 16 17 16 16 17 14 10 9 32 13 17 15 13 21 9 5 6 4 14 25 12 14 12
9 9 9 12 9 10 12 9 19 18 8 1 6 11 18 15 18 5 4 14 15 15 16 17 14 14 14 13 18 17 16 11 15 15 17 12 3 5 1 11 20 15 13 13 13
Wind_Direction
348 348 344 342 333 325 315 310 307 307 311 313 316 317 320 323 307 251 253 197 27 4 324 281 276 252 247 258 232 324 23 96 87 141 202 120 131 126 134 37 279 40 143 143 148
347 345 344 340 334 325 317 312 305 304 307 310 314 316 319 326 293 267 251 131 127 358 276 264 296 290 258 244 228 100 209 275 131 258 12 102 97 274 80 35 345 20 115 136 162
347 344 341 337 337 329 316 309 303 301 303 307 310 312 317 314 274 244 167 160 159 229 264 283 294 272 269 241 206 113 308 290 80 87 84 311 288 86 102 111 200 252 148 146 164
345 343 339 336 335 332 322 309 299 296 298 303 306 312 313 273 266 80 133 153 169 239 254 265 267 253 258 43 213 355 172 2 13 58 194 207 336 121 123 192 175 208 235 159 172
345 342 337 335 331 329 324 312 295 291 294 299 304 316 298 225 251 147 157 164 194 218 239 253 262 269 265 136 222 184 168 235 183 245 249 302 59 14 52 155 193 209 152 176 186
340 340 336 334 330 328 327 314 291 287 288 293 301 311 246 255 242 131 192 168 198 208 229 247 262 339 290 105 332 312 243 263 173 234 151 270 93 301 45 29 176 148 161 174 200
337 339 334 331 328 324 321 306 287 281 282 284 295 283 262 244 256 170 230 190 209 206 229 230 265 271 257 232 211 258 248 232 220 180 113 33 132 8 47 29 104 201 139 175 104
335 336 333 331 328 324 318 298 283 276 272 276 281 262 259 273 247 250 207 210 207 204 236 240 237 274 285 209 242 231 243 241 33 191 133 254 52 322 292 202 135 110 112 158 64
334 334 332 329 330 322 316 294 273 265 267 262 245 220 255 151 213 226 226 215 202 206 230 313 287 256 252 233 247 206 235 214 207 243 276 198 187 228 270 263 126 122 174 178 110
328 332 329 325 325 320 312 287 317 267 224 230 257 253 248 229 195 208 213 222 198 205 211 222 234 243 243 240 234 274 345 209 169 281 243 335 169 174 194 303 192 191 185 114 115
322 322 324 316 320 324 309 205 197 191 220 217 178 225 140 220 175 196 199 214 200 208 213 210 228 230 239 281 162 253 198 234 177 135 250 330 84 110 146 186 144 88 128 133 127
322 315 313 313 317 318 281 246 27 347 269 225 255 228 286 141 179 197 192 206 202 207 212 212 229 241 244 204 226 238 271 254 112 164 213 194 127 123 172 86 7 86 85 103 134
313 314 310 311 319 269 233 245 318 325 271 251 211 227 213 243 212 200 189 207 200 212 207 232 204 242 272 203 229 251 249 291 291 241 226 255 90 56 351 117 86 96 106 141 154
311 308 312 316 281 223 223 247 264 277 278 206 191 219 211 199 229 204 193 200 219 217 225 227 252 198 224 254 256 242 229 186 252 248 244 200 202 37 315 337 178 142 159 170 159
309 301 292 282 321 252 349 208 215 245 266 151 174 180 194 196 170 200 183 208 222 209 226 229 239 204 259 249 255 262 191 266 267 238 256 187 68 313 333 304 246 174 175 157 166
301 292 290 219 223 259 312 322 246 231 244 145 135 174 178 208 239 176 183 221 222 247 227 244 210 245 234 221 259 245 251 257 261 262 253 136 204 241 219 226 223 168 173 155 147
296 264 233 307 226 203 236 229 212 241 211 160 162 185 196 190 217 191 187 201 221 223 234 223 250 216 261 249 226 251 260 258 232 244 351 325 277 179 216 231 218 164 155 150 148
316 244 215 236 312 284 207 217 244 216 255 137 168 190 203 190 215 194 192 208 217 220 226 223 213 239 182 245 263 211 237 257 290 323 304 294 18 331 265 226 178 162 151 162 160
322 193 219 208 232 252 219 220 221 251 227 211 163 179 201 200 205 211 198 214 209 228 238 214 223 210 229 216 245 250 223 169 207 242 264 351 62 319 286 243 155 160 160 159 168
275 219 157 132 194 222 227 240 237 308 300 291 190 187 197 206 208 192 197 215 225 211 241 263 249 209 211 210 223 245 120 63 305 242 247 41 34 214 298 273 168 160 166 165 167
243 232 119 148 185 216 224 235 241 246 294 287 270 190 219 204 197 208 216 216 207 224 212 253 269 247 213 192 224 217 241 243 209 243 285 151 189 162 236 260 180 164 171 170 171
268 274 146 166 198 221 230 243 269 291 199 264 283 296 201 220 195 223 206 217 202 213 202 222 250 255 198 200 221 246 238 229 236 241 212 101 183 209 220 242 222 168 172 171 164
265 111 166 203 223 203 232 251 244 237 253 226 258 274 279 231 213 211 237 224 173 210 223 200 236 256 246 193 202 225 243 254 272 279 120 104 197 203 244 295 280 177 169 157 154
276 149 161 214 264 288 247 240 235 236 278 285 282 298 242 232 239 203 232 201 172 230 234 201 236 243 196 274 350 207 232 255 265 286 148 268 168 325 15 352 314 174 163 152 159
243 262 183 191 221 241 264 245 233 226 206 245 261 250 254 244 210 216 224 190 164 190 212 217 232 247 239 196 95 306 320 294 233 254 267 130 164 114 139 236 321 292 158 152 154
317 333 338 307 221 231 260 266 274 226 243 211 222 331 300 35 14 73 32 325 169 183 203 208 239 245 254 272 176 210 214 249 269 278 81 102 74 312 170 109 281 298 138 139 163
10 328 303 287 263 225 227 249 232 249 205 319 91 35 32 33 332 204 163 273 243 277 207 207 217 236 253 251 260 259 242 238 276 337 103 84 119 170 14 262 220 256 140 152 165